Regional Weather Roundup
Issued by NWS Little Rock, AR

Home | Current Version | Previous Version | Text Only | Print | Product List | Glossary On
Versions: 1 2 3 4 5 6 7 8 9 10 11 12 13 14 15 16 17 18 19 20 21 22 23 24 25 26 27
000
ASUS44 KLZK 232005
RWRLZK

WEATHER ROUNDUP FOR ARKANSAS
NATIONAL WEATHER SERVICE LITTLE ROCK AR
300 PM CDT WED APR 23 2014

NOTE: "FAIR" INDICATES FEW OR NO CLOUDS BELOW 12,000 FEET WITH NO
SIGNIFICANT WEATHER AND/OR OBSTRUCTIONS TO VISIBILITY.

ARZ001-003-010-029-232100-
NORTHWEST ARKANSAS

CITY           SKY/WX    TMP DP  RH WIND       PRES   REMARKS
FAYETTEVILLE   SUNNY     77  50  38 S9        29.90F
FORT SMITH     SUNNY     83  55  38 SE9G18    29.86F
HARRISON       SUNNY     77  42  28 SE13      29.93F
BENTONVILLE    SUNNY     79  48  34 S10       29.91F
ROGERS         SUNNY     78  44  29 S10G20    29.90F
SILOAM SPGS    SUNNY     79  50  36 S9G20     29.91S
HIGHFILL       SUNNY     78  46  32 S10G20    29.89F
SPRINGDALE     MOSUNNY   77  48  36 SE12G23   29.92F
$$

ARZ004-005-016-232100-
NORTH CENTRAL ARKANSAS

CITY           SKY/WX    TMP DP  RH WIND       PRES   REMARKS
BATESVILLE     SUNNY     73  46  38 E8        29.98F
FLIPPIN        SUNNY     75  43  31 E8        29.94F
MTN HOME       SUNNY     77  39  25 SE8       29.94F
$$

ARZ040-041-232100-
WEST CENTRAL ARKANSAS

CITY           SKY/WX    TMP DP  RH WIND       PRES   REMARKS
MENA           PTSUNNY   81  55  41 SE7       29.91F
MOUNT IDA      SUNNY     77  54  44 VRB7      29.90F
$$

ARZ009-017-025-026-028-232100-
NORTHEAST ARKANSAS

CITY           SKY/WX    TMP DP  RH WIND       PRES   REMARKS
CORNING        FAIR      72  37  28 E9        30.00F
JONESBORO      SUNNY     73  37  27 VRB6      29.99F
NEWPORT        SUNNY     72  43  35 NE5       30.00F
WALNUT RIDGE   SUNNY     73  39  29 NE3       30.00F
BLYTHEVILLE    SUNNY     72  38  29 VRB7      30.00F
NW BLYTHEVILLE SUNNY     72  37  28 NE8       30.00
$$

ARZ022-023-033-042-044-232100-
CENTRAL ARKANSAS

CITY           SKY/WX    TMP DP  RH WIND       PRES   REMARKS
LITTLE ROCK    MOSUNNY   77  45  32 SE8       29.96F
N LITTLE ROCK  MOSUNNY   75  48  38 S7G16     29.96F
JACKSONVILLE   SUNNY     76  46  33 E5        29.97F
SEARCY         SUNNY     75  44  33 NE3       29.99F
HOT SPRINGS    SUNNY     79  52  38 VRB5      29.93F
RUSSELLVILLE   SUNNY     78  48  34 E10G17    29.92F
CLINTON        FAIR      75  48  38 S8        29.95F
$$

ARZ036-232100-
EAST ARKANSAS

CITY           SKY/WX    TMP DP  RH WIND       PRES   REMARKS
WEST MEMPHIS   SUNNY     75  40  28 E6        29.97F
$$

ARZ050-053-066-070-073-232100-
SOUTHWEST ARKANSAS

CITY           SKY/WX    TMP DP  RH WIND       PRES   REMARKS
ARKADELPHIA    FAIR      82  53  36 VRB5      29.92F
CAMDEN         SUNNY     82  50  32 MISG      29.93F
TEXARKANA      MOSUNNY   82  56  40 S9        29.90F
EL DORADO      MOSUNNY   80  54  40 E10G20    29.93F
DE QUEEN       PTSUNNY   81  59  47 SE12      29.87F
$$

ARZ056-057-069-232100-
SOUTHEAST ARKANSAS

CITY           SKY/WX    TMP DP  RH WIND       PRES   REMARKS
PINE BLUFF     SUNNY     77  49  37 E6        29.96F
STUTTGART      SUNNY     75  45  33 CALM      29.98F
MONTICELLO     SUNNY     78  47  33 VRB5      29.95F

$$





USA.gov is the U.S. government's official web portal to all federal, state and local government web resources and services.